Weather in Vigo

Spain     42°14′04″N   8°43′01″W
temp.,
°C
wind,
m/s
gust,
m/s
humid.,
%
clouds,
%
prec.,
mm/h
press.,
hPa
HPBL,
m
17 may, mon
mon1723:00+12nw228521 0.2 1021324
02:00+12n128480 0.4 1021287
05:00+11ne1285100 0.1 1021192
08:00+11ese2286100 0.2 1022118
11:00+14nw22685 0.0 1023613
14:00+15wnw32619 0.0 1022636
17:00+15wnw346087 0.0 1022527
20:00+14w1165100 0.0 1021259
18 may, tue
tue1823:00+14sse2270100 0.0 1021155
02:00+13sse4772100 0.1 1020295
05:00+13sse41081100 0.2 1018353
08:00+13s41291100 1.1 1018529
11:00+14ssw4794100 0.6 1020326
14:00+15wnw3489100 1.1 1021405
17:00+15nw56767 0.1 1024525
20:00+14nw5775100 0.1 1025525
19 may, wed
wed1923:00+13n3486100 0.0 1026211
02:00+11nne348856 0.0 1026148
05:00+10ne338782 0.0 1026120
08:00+9ne3484100 0.0 1027142
11:00+15nne345164 0.0 1027542
14:00+18nw55495 0.0 1026687
17:00+17nw666116 0.0 1025446
20:00+16wnw346894 0.0 1025159
20 may, thu
thu2023:00+14nne447548 0.0 102676
02:00+13ne237654 0.0 102578
05:00+13ene227582 0.0 102466
08:00+13e2271100 0.0 102475
11:00+18ene1157100 0.0 1023180
14:00+18wnw435641 0.0 1023358
17:00+18wnw2355100 0.0 1022231
20:00+16wnw226037 0.0 1022138
21 may, fri
fri2123:00+14nw23720 0.0 102353
02:00+13ne01740 0.0 102120
05:00+12e117095 0.0 102032
08:00+13nne117250 0.0 102049
11:00+15wnw227796 0.0 1020351
14:00+15nw3487100 0.1 1021479
17:00+14nw357729 0.1 1021640
20:00+14nw566942 0.1 1021691